Location: Ottawa
(45.4167°N, 75.7000°W)
Time: 14:58:11
(UTC-05:00)

OTV 5 (USA 277) - Pass Details

Date: 11 October 2017
Orbit: 404 x 417 km, 43.0° (Epoch: 07 September)

Event Time Altitude Azimuth Distance (km) Brightness Sun altitude
Rises 20:29:04 0° 248° (WSW) 2,351 ? -22.6°
Reaches altitude 10° 20:31:13 10° 242° (WSW) 1,488 ? -23.0°
Enters shadow 20:33:03 27° 225° (SW) 830 ? -23.3°
